星链-3604 (STARLINK-3604 )

导读 | 豆包AI

STARLINK-3604是美国太空探索技术公司SpaceX星链卫星互联网项目中的一颗卫星,于2022年2月25日发射升空,属于星链星座组网卫星,主要用于为全球范围内用户提供低延迟、高速率的宽带互联网服务,目前已入轨运行,参与星链星座的服务组网。

Basic Information
目录编号:
51815
目录名称:
STARLINK-3604
国际标识:
2022-017AZ
轨道中心:
EARTH
卫星名称:
星链-3604
卫星全名:
星链-3604 (STARLINK-3604 )
卫星状态:
在轨 (已飞行1478 天)
发射日期:
2022-02-25 UTC
国别 :
美国 (US)
星等 :
--
Orbit Information
数据来源 国际轨道数据 AOE轨道数据
星历时间 2026-03-14T06:31:18+0800
1天前
查看轨道信息
2026-03-11T16:00:00+0800
3天前
查看轨道信息
半长轴 6917.874km 6917.879km
偏心率 0.0001685 0.0001187
轨道倾角 53.216° 53.217°
近地点辐角 82.087° 76.721°
升交点赤经 310.049° 321.745°
平近点角 278.031° 165.383°
近地点 538.571km 538.92km
远地点 540.903km 540.564km
周期 95.437分钟 95.438分钟
每日圈数 15.088421 15.088407
Detailed Information
固有亮度:
5
最大亮度:
2.5
卫星平台:
Starlink v1.5
覆盖范围:
全球
运营商:
太空探索技术公司
运营商所在国:
美国
制造商(研发单位):
太空探索技术公司
制造商所在国:
美国
使用方式:
暂无
Satellite Introduction
星链(Starlink)计划是由太空探索技术公司(SpaceX)提出的一个巨型低轨卫星互联网星座项目,计划在2019年至2024年间在太空搭建由约1.2万颗卫星组成的“星链”网络,其中1584颗将部署在地球上空550千米处的近地轨道,并从2020年开始工作。该卫星仍在工作。
2D Orbit Map
3D Orbit Map
Orbit Altitude Analysis Chart
Orbit Inclination Analysis Chart
Orbit Comprehensive Analysis Chart
View Comprehensive Chart